STARLINK-3829 (52348 NORAD) Tracking and Keplerian Element Data

This shows tracking and keplerian element data for the satellite.

Feedback or suggestion? Click here.




ElementValue
Catalog52348
NameSTARLINK-3829
Epoch Orbit130
Epoch Day167.08334491
Epoch Year2022
RAAN202.9652
Inclination53.2174
Eccentricity0.0001408
Argument of Perigee53.2233
Mean Anonmoly99.2707
Mean Motion15.62252981
Decay Rate-0.00714892
L11 52348U 22045T 22167.08334491 -.00714892 00000+0 -86835-2 0 9999
L22 52348 53.2174 202.9652 0001408 53.2233 99.2707 15.62252981 1302

Live tracking and technical data element details for STARLINK-3829 (NORAD 52348). STARLINK-3829 can be tracked NOW for your location showing map with azimuth and elevation plus other details from your city location.

Track the satellite on the map from your city or location and see movement details for azimuth, elevation, latitude, longitude, range, height, and movement on the map or in text.







IsCatalogInMostPopularTable: catalog: 52348, numindb: 4
Update: records affected: 1



GetName: 52348 STARLINK-3829

Hit Count: updated at: Sat, 25 Jun 2022 03:56:03 GMT